Weather History for Szolnok, Hungary

Change the Weather History Date:

Friday, September 27, 2013

  Actual Average (LHBP) Record (LHBP)
Temperature  
Mean Temperature 55 °F -  
Max Temperature 62 °F 66 °F 84 °F (2012)
Min Temperature 48 °F 46 °F 39 °F (1996)
Degree Days  
Heating Degree Days 10    
Growing Degree Days 5 (Base 50)    
Moisture  
Dew Point 42 °F    
Average Humidity 65    
Maximum Humidity 93    
Minimum Humidity 37    
Precipitation  
Precipitation 0.00 in - - ()
Sea Level Pressure  
Sea Level Pressure 30.04 in    
Wind  
Wind Speed 5 mph ()    
Max Wind Speed 11 mph    
Max Gust Speed -    
Visibility 6.2 miles    
Events      
Averages and records for this station are not official NWS values.
T = Trace of Precipitation, MM = Missing Value Source: Averaged Metar Reports

Daily Weather History Graph

Daily Weather History Graph

Search for Another Location

Airport:

Trip Planner

Search our weather history database for the weather conditions in past years. The results will help you decide how hot, cold, wet, or windy it might be!

Date:

Astronomy

Sep. 27, 2013 Rise Set
Actual Time 6:32 AM CEST 6:26 PM CEST
Civil Twilight 6:02 AM CEST 6:57 PM CEST
Nautical Twilight 5:26 AM CEST 7:32 PM CEST
Astronomical Twilight 4:49 AM CEST 8:08 PM CEST
Moon 11:44 PM CEST (9/27) 2:13 PM CEST (9/27)
Length of Visible Light 12h 55m
Length of Day
11h 54m
Waning Gibbous, 48% of the Moon is Illuminated
Sep 27
Waning Gibbous
Oct 5
New
Oct 12
First Quarter
Oct 19
Full
Oct 27
Last Quarter

Hourly Weather History & Observations

Time (CEST) Temp. Dew Point Humidity Pressure Visibility Wind Dir Wind Speed Gust Speed Precip Events Conditions
12:15 AM 57.2 °F 51.8 °F 82% 29.92 in - WNW 8.9 mph - N/A   Clear
12:45 AM 55.4 °F 50.0 °F 82% 29.95 in - NW 11.2 mph - N/A   Clear
1:15 AM 53.6 °F 48.2 °F 82% 29.95 in - NNW 6.7 mph - N/A   Clear
1:45 AM 53.6 °F 46.4 °F 77% 29.98 in - NNW 8.9 mph - N/A   Clear
2:15 AM 51.8 °F 46.4 °F 82% 29.98 in - North 8.9 mph - N/A   Clear
2:45 AM 51.8 °F 48.2 °F 88% 29.98 in - ENE 6.7 mph - N/A   Clear
3:15 AM 50.0 °F 44.6 °F 82% 29.98 in - East 4.5 mph - N/A   Clear
3:45 AM - - N/A% - 6.2 mi ENE 8.9 mph - N/A   Scattered Clouds
4:15 AM 48.2 °F 46.4 °F 93% 30.01 in 6.2 mi SE 2.2 mph - N/A   Scattered Clouds
4:45 AM 50.0 °F 46.4 °F 87% 30.01 in 6.2 mi Calm Calm - N/A   Mostly Cloudy
5:15 AM 48.2 °F 44.6 °F 87% 30.01 in 6.2 mi East 2.2 mph - N/A   Scattered Clouds
5:45 AM 48.2 °F 44.6 °F 87% 30.04 in 6.2 mi ENE 2.2 mph - N/A   Mostly Cloudy
6:15 AM 48.2 °F 44.6 °F 87% 30.04 in 6.2 mi Calm Calm - N/A   Scattered Clouds
6:45 AM - - N/A% - 6.2 mi ENE 6.7 mph - N/A   Clear
7:15 AM 48.2 °F 42.8 °F 82% 30.04 in 6.2 mi NE 4.5 mph - N/A   Mostly Cloudy
7:45 AM 50.0 °F 42.8 °F 76% 30.06 in 6.2 mi ENE 6.7 mph - N/A   Mostly Cloudy
8:15 AM 50.0 °F 42.8 °F 76% 30.06 in 6.2 mi ENE 6.7 mph - N/A   Mostly Cloudy
8:45 AM 50.0 °F 42.8 °F 76% 30.06 in 6.2 mi ENE 8.9 mph - N/A   Mostly Cloudy
9:15 AM 51.8 °F 41.0 °F 67% 30.09 in 6.2 mi East 11.2 mph - N/A   Mostly Cloudy
9:45 AM 53.6 °F 42.8 °F 67% 30.09 in - East 8.9 mph - N/A   Clear
10:15 AM 53.6 °F 41.0 °F 62% 30.09 in - ENE 8.9 mph - N/A   Clear
10:45 AM 55.4 °F 35.6 °F 47% 30.09 in - ENE 11.2 mph - N/A   Clear
11:15 AM 55.4 °F 35.6 °F 47% 30.09 in - East 8.9 mph - N/A   Clear
11:45 AM 57.2 °F 35.6 °F 44% 30.06 in - East 8.9 mph - N/A   Clear
12:15 PM 59.0 °F 37.4 °F 45% 30.06 in - ENE 6.7 mph - N/A   Clear
12:45 PM 59.0 °F 35.6 °F 42% 30.06 in - East 4.5 mph - N/A   Clear
1:15 PM 59.0 °F 35.6 °F 42% 30.06 in - Variable 4.5 mph - N/A   Clear
1:45 PM 59.0 °F 33.8 °F 39% 30.06 in - Variable 2.2 mph - N/A   Clear
2:15 PM 62.6 °F 35.6 °F 37% 30.06 in - Variable 2.2 mph - N/A   Clear
2:45 PM 60.8 °F 35.6 °F 39% 30.04 in - Variable 4.5 mph - N/A   Clear
3:15 PM 60.8 °F 35.6 °F 39% 30.04 in - Variable 4.5 mph - N/A   Clear
3:45 PM 60.8 °F 39.2 °F 45% 30.04 in - Variable 2.2 mph - N/A   Clear
4:15 PM 59.0 °F 35.6 °F 42% 30.04 in - Variable 2.2 mph - N/A   Clear
4:45 PM 59.0 °F 37.4 °F 45% 30.04 in - SSE 4.5 mph - N/A   Clear
5:15 PM 59.0 °F 39.2 °F 48% 30.04 in - SSW 4.5 mph - N/A   Clear
5:45 PM 59.0 °F 39.2 °F 48% 30.04 in - South 2.2 mph - N/A   Clear
6:15 PM 57.2 °F 39.2 °F 51% 30.04 in - SSW 2.2 mph - N/A   Clear
6:45 PM 57.2 °F 41.0 °F 55% 30.04 in - West 2.2 mph - N/A   Clear
7:15 PM 55.4 °F 42.8 °F 63% 30.04 in - Variable 2.2 mph - N/A   Clear
7:45 PM 55.4 °F 42.8 °F 63% 30.04 in - WNW 2.2 mph - N/A   Clear
8:15 PM 53.6 °F 42.8 °F 67% 30.04 in - NW 4.5 mph - N/A   Clear
8:45 PM 53.6 °F 42.8 °F 67% 30.04 in - NNE 2.2 mph - N/A   Clear
9:15 PM 51.8 °F 44.6 °F 76% 30.04 in - Calm Calm - N/A   Clear
9:45 PM 50.0 °F 42.8 °F 76% 30.04 in - NW 2.2 mph - N/A   Clear
10:15 PM 51.8 °F 42.8 °F 71% 30.04 in - North 4.5 mph - N/A   Clear
10:45 PM 50.0 °F 42.8 °F 76% 30.04 in - Calm Calm - N/A   Clear
11:15 PM 50.0 °F 41.0 °F 71% 30.04 in - NE 2.2 mph - N/A   Clear
11:45 PM 48.2 °F 39.2 °F 71% 30.04 in - NNE 2.2 mph - N/A   Clear